Tracking 31027 objects as of 19-Jul-2025
HD Live streaming from Space Station
objects crossing your sky now

CZ-4B DEB

Track CZ-4B DEB now!
10-day predictions


NORAD ID: 29216
Int'l Code: 2002-024G
Perigee: 844.3 km
Apogee: 1,176.5 km
Inclination: 98.8 °
Period: 105.2 minutes
Semi major axis: 7381 km
RCS: 0.0014 m2 (small)
Launch date: May 15, 2002
Source: People's Republic of China (PRC)
Launch site: Taiyaun Space Center, China (TSC)

Note: This is SATELLITE DEBRIS
Your satellite tracking list
STARLINK-31009
Track 1 satellite(s)




NASA's NSSDC Master Catalog

Two Line Element Set (TLE):
1 29216U 02024G   25197.69776163  .00000244  00000-0  27604-3 0  9999
2 29216  98.8000   0.9600 0224993 266.0294  91.5109 13.68968721653538
Source of the keplerian elements: AFSPC